owner,sensor,date,latitude,longitude,vertical_datum,wind_speed,wind_to_direction,wind_speed_of_gust,qcFlag 
TABS,ioos:station:wmo:42044:1,2003-08-01T00:09:00Z,26.1914,-97.0507,0.0,6.623745164,96.5889602,9.66,'11111222,11111222,11111222' 
TABS,ioos:station:wmo:42044:1,2003-08-01T00:39:00Z,26.1914,-97.0507,0.0,6.533192175,94.82959877,9.87,'11111222,11111222,11111222' 
TABS,ioos:station:wmo:42044:1,2003-08-01T01:09:00Z,26.1914,-97.0507,0.0,6.12003268,89.81233908,8.82,'11111222,11111222,11111222' 
TABS,ioos:station:wmo:42044:1,2003-08-01T01:39:00Z,26.1914,-97.0507,0.0,5.344249246,85.81467274,8.16,'11111222,11111222,11111222' 
TABS,ioos:station:wmo:42044:1,2003-08-01T02:09:00Z,26.1914,-97.0507,0.0,6.012129406,97.55096327,8.87,'11111222,11111222,11111222' 
TABS,ioos:station:wmo:42044:1,2003-08-01T02:39:00Z,26.1914,-97.0507,0.0,5.942692992,100.6674325,9.71,'11111222,11111222,11111222' 
TABS,ioos:station:wmo:42044:1,2003-08-01T03:09:00Z,26.1914,-97.0507,0.0,6.0491487,102.3134556,9.31,'11111222,11111222,11111222' 
TABS,ioos:station:wmo:42044:1,2003-08-01T03:39:00Z,26.1914,-97.0507,0.0,6.429626739,103.9501803,10.5,'11111222,11111222,11111222' 
TABS,ioos:station:wmo:42044:1,2003-08-01T04:09:00Z,26.1914,-97.0507,0.0,6.417631962,111.7686222,9.69,'11111222,11111222,11111222' 
TABS,ioos:station:wmo:42044:1,2003-08-01T04:39:00Z,26.1914,-97.0507,0.0,6.414000312,114.2077443,9.4,'11111222,11111222,11111222' 
TABS,ioos:station:wmo:42044:1,2003-08-01T05:09:00Z,26.1914,-97.0507,0.0,6.113542345,116.9426253,9.09,'11111222,11111222,11111222' 
TABS,ioos:station:wmo:42044:1,2003-08-01T05:39:00Z,26.1914,-97.0507,0.0,6.649586453,119.4566728,9.93,'11111222,11111222,11111222' 
TABS,ioos:station:wmo:42044:1,2003-08-01T06:09:00Z,26.1914,-97.0507,0.0,6.329423354,123.1380586,9.74,'11111222,11111222,11111222' 
TABS,ioos:station:wmo:42044:1,2003-08-01T06:39:00Z,26.1914,-97.0507,0.0,6.180978887,122.3791136,9.23,'11111222,11111222,11111222' 
TABS,ioos:station:wmo:42044:1,2003-08-01T07:09:00Z,26.1914,-97.0507,0.0,6.306671071,126.0343894,9.58,'11111222,11111222,11111222' 
TABS,ioos:station:wmo:42044:1,2003-08-01T07:39:00Z,26.1914,-97.0507,0.0,5.926390132,119.8531565,9.09,'11111222,11111222,11111222' 
TABS,ioos:station:wmo:42044:1,2003-08-01T08:09:00Z,26.1914,-97.0507,0.0,6.451356447,124.1337893,9.2,'11111222,11111222,11111222' 
TABS,ioos:station:wmo:42044:1,2003-08-01T08:39:00Z,26.1914,-97.0507,0.0,5.960511723,123.1571943,8.85,'11111222,11111222,11111222' 
TABS,ioos:station:wmo:42044:1,2003-08-01T09:09:00Z,26.1914,-97.0507,0.0,5.71993007,124.746175,8.73,'11111222,11111222,11111222' 
TABS,ioos:station:wmo:42044:1,2003-08-01T09:39:00Z,26.1914,-97.0507,0.0,5.645759471,120.7900605,7.7,'11111222,11111222,11111222' 
TABS,ioos:station:wmo:42044:1,2003-08-01T10:09:00Z,26.1914,-97.0507,0.0,5.613644093,115.4242134,8.06,'11111222,11111222,11111222' 
TABS,ioos:station:wmo:42044:1,2003-08-01T10:39:00Z,26.1914,-97.0507,0.0,5.561195915,118.2243535,8.07,'11111222,11111222,11111222' 
TABS,ioos:station:wmo:42044:1,2003-08-01T11:09:00Z,26.1914,-97.0507,0.0,5.216473905,118.1374516,7.41,'11111222,11111222,11111222' 
TABS,ioos:station:wmo:42044:1,2003-08-01T11:39:00Z,26.1914,-97.0507,0.0,5.216215103,111.5978086,7.48,'11111222,11111222,11111222' 
TABS,ioos:station:wmo:42044:1,2003-08-01T12:09:00Z,26.1914,-97.0507,0.0,5.195738639,108.051734,6.83,'11111222,11111222,11111222' 
TABS,ioos:station:wmo:42044:1,2003-08-01T12:39:00Z,26.1914,-97.0507,0.0,5.303630832,105.5302784,7.08,'11111222,11111222,11111222' 
TABS,ioos:station:wmo:42044:1,2003-08-01T13:09:00Z,26.1914,-97.0507,0.0,5.630177617,97.65557007,7.08,'11111222,11111222,11111222' 
TABS,ioos:station:wmo:42044:1,2003-08-01T13:39:00Z,26.1914,-97.0507,0.0,6.073631533,91.98185231,7.38,'11111222,11111222,11111222' 
TABS,ioos:station:wmo:42044:1,2003-08-01T14:09:00Z,26.1914,-97.0507,0.0,6.769379588,95.34043283,7.89,'11111222,11111222,11111222' 
TABS,ioos:station:wmo:42044:1,2003-08-01T14:39:00Z,26.1914,-97.0507,0.0,6.624756599,97.37215187,7.75,'11111222,11111222,11111222' 
TABS,ioos:station:wmo:42044:1,2003-08-01T15:09:00Z,26.1914,-97.0507,0.0,6.507718494,95.29048975,8.23,'11111222,11111222,11111222' 
TABS,ioos:station:wmo:42044:1,2003-08-01T15:39:00Z,26.1914,-97.0507,0.0,6.510522252,93.25834957,7.59,'11111222,11111222,11111222' 
TABS,ioos:station:wmo:42044:1,2003-08-01T16:09:00Z,26.1914,-97.0507,0.0,6.830029283,93.10579141,8.38,'11111222,11111222,11111222' 
TABS,ioos:station:wmo:42044:1,2003-08-01T16:39:00Z,26.1914,-97.0507,0.0,6.629245809,86.97317086,8.35,'11111222,11111222,11111222' 
TABS,ioos:station:wmo:42044:1,2003-08-01T17:09:00Z,26.1914,-97.0507,0.0,6.208461967,96.38136314,8.37,'11111222,11111222,11111222' 
TABS,ioos:station:wmo:42044:1,2003-08-01T17:39:00Z,26.1914,-97.0507,0.0,6.19003231,97.98651276,8.06,'11111222,11111222,11111222' 
TABS,ioos:station:wmo:42044:1,2003-08-01T18:09:00Z,26.1914,-97.0507,0.0,5.898152253,93.01320138,8.27,'11111222,11111222,11111222' 
TABS,ioos:station:wmo:42044:1,2003-08-01T18:39:00Z,26.1914,-97.0507,0.0,5.71787548,93.00793475,7.81,'11111222,11111222,11111222' 
TABS,ioos:station:wmo:42044:1,2003-08-01T19:09:00Z,26.1914,-97.0507,0.0,5.397795846,93.08014855,7.8,'11111222,11111222,11111222' 
TABS,ioos:station:wmo:42044:1,2003-08-01T19:39:00Z,26.1914,-97.0507,0.0,5.741445811,103.1894827,8.18,'11111222,11111222,11111222' 
TABS,ioos:station:wmo:42044:1,2003-08-01T20:09:00Z,26.1914,-97.0507,0.0,6.061699432,110.1692165,8.19,'11111222,11111222,11111222' 
TABS,ioos:station:wmo:42044:1,2003-08-01T20:39:00Z,26.1914,-97.0507,0.0,6.245998719,109.1605492,9.46,'11111222,11111222,11111222' 
TABS,ioos:station:wmo:42044:1,2003-08-01T21:09:00Z,26.1914,-97.0507,0.0,6.451356447,107.8736226,10.48,'11111222,11111222,11111222' 
TABS,ioos:station:wmo:42044:1,2003-08-01T21:39:00Z,26.1914,-97.0507,0.0,6.803601987,110.5662745,11.14,'11111222,11111222,11111222' 
TABS,ioos:station:wmo:42044:1,2003-08-01T22:09:00Z,26.1914,-97.0507,0.0,6.553388437,104.3122932,10.06,'11111222,11111222,11111222' 
TABS,ioos:station:wmo:42044:1,2003-08-01T22:39:00Z,26.1914,-97.0507,0.0,6.378855697,102.402547,9.56,'11111222,11111222,11111222' 
TABS,ioos:station:wmo:42044:1,2003-08-01T23:09:00Z,26.1914,-97.0507,0.0,6.47892738,104.9374997,9.68,'11111222,11111222,11111222' 
TABS,ioos:station:wmo:42044:1,2003-08-01T23:39:00Z,26.1914,-97.0507,0.0,6.466011135,104.1440876,9.92,'11111222,11111222,11111222' 
TABS,ioos:station:wmo:42044:1,2003-08-02T00:09:00Z,26.1914,-97.0507,0.0,6.694811424,107.921114,9.59,'11111222,11111222,11111222' 
TABS,ioos:station:wmo:42044:1,2003-08-02T00:39:00Z,26.1914,-97.0507,0.0,6.361163416,97.95217246,9.05,'11111222,11111222,11111222' 
TABS,ioos:station:wmo:42044:1,2003-08-02T01:09:00Z,26.1914,-97.0507,0.0,6.8366366,101.4746858,9.93,'11111222,11111222,11111222' 
TABS,ioos:station:wmo:42044:1,2003-08-02T01:39:00Z,26.1914,-97.0507,0.0,6.443454043,100.2813834,10.05,'11111222,11111222,11111222' 
TABS,ioos:station:wmo:42044:1,2003-08-02T02:09:00Z,26.1914,-97.0507,0.0,6.288282754,99.61251319,9.43,'11111222,11111222,11111222' 
TABS,ioos:station:wmo:42044:1,2003-08-02T02:39:00Z,26.1914,-97.0507,0.0,6.472974587,100.2339899,9.02,'11111222,11111222,11111222' 
TABS,ioos:station:wmo:42044:1,2003-08-02T03:09:00Z,26.1914,-97.0507,0.0,6.1916476,101.8366263,9.49,'11111222,11111222,11111222' 
TABS,ioos:station:wmo:42044:1,2003-08-02T03:39:00Z,26.1914,-97.0507,0.0,6.471135913,109.4993463,10.18,'11111222,11111222,11111222' 
TABS,ioos:station:wmo:42044:1,2003-08-02T04:09:00Z,26.1914,-97.0507,0.0,6.740927236,112.2279375,10.02,'11111222,11111222,11111222' 
TABS,ioos:station:wmo:42044:1,2003-08-02T04:39:00Z,26.1914,-97.0507,0.0,6.494004928,111.3102646,10.26,'11111222,11111222,11111222' 
TABS,ioos:station:wmo:42044:1,2003-08-02T05:09:00Z,26.1914,-97.0507,0.0,6.417631962,111.7686222,9.71,'11111222,11111222,11111222' 
TABS,ioos:station:wmo:42044:1,2003-08-02T05:39:00Z,26.1914,-97.0507,0.0,7.218261564,117.0268891,10.25,'11111222,11111222,11111222' 
TABS,ioos:station:wmo:42044:1,2003-08-02T06:09:00Z,26.1914,-97.0507,0.0,7.253854148,116.3534665,10.26,'11111222,11111222,11111222' 
TABS,ioos:station:wmo:42044:1,2003-08-02T06:39:00Z,26.1914,-97.0507,0.0,6.745850576,125.5281422,9.07,'11111222,11111222,11111222' 
TABS,ioos:station:wmo:42044:1,2003-08-02T07:09:00Z,26.1914,-97.0507,0.0,6.868624316,128.9727995,9.89,'11111222,11111222,11111222' 
TABS,ioos:station:wmo:42044:1,2003-08-02T07:39:00Z,26.1914,-97.0507,0.0,6.256932156,127.8592533,8.44,'11111222,11111222,11111222' 
TABS,ioos:station:wmo:42044:1,2003-08-02T08:09:00Z,26.1914,-97.0507,0.0,6.6736272,129.2232887,9.46,'11111222,11111222,11111222' 
TABS,ioos:station:wmo:42044:1,2003-08-02T08:39:00Z,26.1914,-97.0507,0.0,6.446060813,127.1191104,9.15,'11111222,11111222,11111222' 
TABS,ioos:station:wmo:42044:1,2003-08-02T09:09:00Z,26.1914,-97.0507,0.0,5.96936345,122.7586388,8.46,'11111222,11111222,11111222' 
TABS,ioos:station:wmo:42044:1,2003-08-02T09:39:00Z,26.1914,-97.0507,0.0,6.376715455,118.5749591,8.75,'11111222,11111222,11111222' 
TABS,ioos:station:wmo:42044:1,2003-08-02T10:09:00Z,26.1914,-97.0507,0.0,6.275388434,120.4473778,8.69,'11111222,11111222,11111222' 
TABS,ioos:station:wmo:42044:1,2003-08-02T10:39:00Z,26.1914,-97.0507,0.0,6.130905317,118.6555642,8.38,'11111222,11111222,11111222' 
TABS,ioos:station:wmo:42044:1,2003-08-02T11:09:00Z,26.1914,-97.0507,0.0,6.154518665,115.6077958,8.32,'11111222,11111222,11111222' 
TABS,ioos:station:wmo:42044:1,2003-08-02T11:39:00Z,26.1914,-97.0507,0.0,6.113542345,116.9426253,8.29,'11111222,11111222,11111222' 
TABS,ioos:station:wmo:42044:1,2003-08-02T12:09:00Z,26.1914,-97.0507,0.0,5.563542037,118.9149191,7.73,'11111222,11111222,11111222' 
TABS,ioos:station:wmo:42044:1,2003-08-02T12:39:00Z,26.1914,-97.0507,0.0,4.178731865,119.6942125,6.13,'11111222,11111222,11111222' 
TABS,ioos:station:wmo:42044:1,2003-08-02T13:09:00Z,26.1914,-97.0507,0.0,4.81300322,124.8460729,6.76,'11111222,11111222,11111222' 
TABS,ioos:station:wmo:42044:1,2003-08-02T13:39:00Z,26.1914,-97.0507,0.0,4.718410749,122.7136826,7.23,'11111222,11111222,11111222' 
TABS,ioos:station:wmo:42044:1,2003-08-02T14:09:00Z,26.1914,-97.0507,0.0,4.530706347,115.7736153,6.76,'11111222,11111222,11111222' 
TABS,ioos:station:wmo:42044:1,2003-08-02T14:39:00Z,26.1914,-97.0507,0.0,4.610878441,111.501805,6.46,'11111222,11111222,11111222' 
TABS,ioos:station:wmo:42044:1,2003-08-02T15:09:00Z,26.1914,-97.0507,0.0,5.048732514,113.2138585,7.27,'11111222,11111222,11111222' 
TABS,ioos:station:wmo:42044:1,2003-08-02T15:39:00Z,26.1914,-97.0507,0.0,5.398416434,109.1401584,8.32,'11111222,11111222,11111222' 
TABS,ioos:station:wmo:42044:1,2003-08-02T16:09:00Z,26.1914,-97.0507,0.0,5.522001449,106.3020911,7.27,'11111222,11111222,11111222' 
TABS,ioos:station:wmo:42044:1,2003-08-02T16:39:00Z,26.1914,-97.0507,0.0,5.352354622,100.6595066,7.14,'11111222,11111222,11111222' 
TABS,ioos:station:wmo:42044:1,2003-08-02T17:09:00Z,26.1914,-97.0507,0.0,5.631811432,105.764111,8.14,'11111222,11111222,11111222' 
TABS,ioos:station:wmo:42044:1,2003-08-02T17:39:00Z,26.1914,-97.0507,0.0,5.253389382,104.3276042,7.89,'11111222,11111222,11111222' 
TABS,ioos:station:wmo:42044:1,2003-08-02T18:09:00Z,26.1914,-97.0507,0.0,5.48861549,98.38147559,8.38,'11111222,11111222,11111222' 
TABS,ioos:station:wmo:42044:1,2003-08-02T18:39:00Z,26.1914,-97.0507,0.0,5.363478349,94.06319513,7.65,'11111222,11111222,11111222' 
TABS,ioos:station:wmo:42044:1,2003-08-02T19:09:00Z,26.1914,-97.0507,0.0,5.901737032,102.1290525,8.41,'11111222,11111222,11111222' 
TABS,ioos:station:wmo:42044:1,2003-08-02T19:39:00Z,26.1914,-97.0507,0.0,5.672459784,100.3594492,8.59,'11111222,11111222,11111222' 
TABS,ioos:station:wmo:42044:1,2003-08-02T20:09:00Z,26.1914,-97.0507,0.0,6.194360338,104.0141979,9.29,'11111222,11111222,11111222' 
TABS,ioos:station:wmo:42044:1,2003-08-02T20:39:00Z,26.1914,-97.0507,0.0,6.574435337,105.3472258,10.82,'11111222,11111222,11111222' 
TABS,ioos:station:wmo:42044:1,2003-08-02T21:09:00Z,26.1914,-97.0507,0.0,7.104097409,109.6596242,10.45,'11111222,11111222,11111222' 
TABS,ioos:station:wmo:42044:1,2003-08-02T21:39:00Z,26.1914,-97.0507,0.0,6.444354118,104.4679042,9.53,'11111222,11111222,11111222' 
TABS,ioos:station:wmo:42044:1,2003-08-02T22:09:00Z,26.1914,-97.0507,0.0,6.247823621,103.7030039,9.22,'11111222,11111222,11111222' 
TABS,ioos:station:wmo:42044:1,2003-08-02T22:39:00Z,26.1914,-97.0507,0.0,6.625141508,108.845551,9.44,'11111222,11111222,11111222' 
TABS,ioos:station:wmo:42044:1,2003-08-02T23:09:00Z,26.1914,-97.0507,0.0,7.083784299,108.9468813,10.86,'11111222,11111222,11111222' 
TABS,ioos:station:wmo:42044:1,2003-08-02T23:39:00Z,26.1914,-97.0507,0.0,7.250662039,105.1099607,10.87,'11111222,11111222,11111222' 
TABS,ioos:station:wmo:42044:1,2003-08-03T00:09:00Z,26.1914,-97.0507,0.0,7.314929938,106.6020953,11.11,'11111222,11111222,11111222' 
TABS,ioos:station:wmo:42044:1,2003-08-03T00:39:00Z,26.1914,-97.0507,0.0,7.463785903,110.3048471,11.32,'11111222,11111222,11111222' 
TABS,ioos:station:wmo:42044:1,2003-08-03T01:09:00Z,26.1914,-97.0507,0.0,8.208197122,113.6297434,11.47,'11111222,11111222,11111222' 
TABS,ioos:station:wmo:42044:1,2003-08-03T01:39:00Z,26.1914,-97.0507,0.0,7.66082241,113.7881957,10.76,'11111222,11111222,11111222' 
TABS,ioos:station:wmo:42044:1,2003-08-03T02:09:00Z,26.1914,-97.0507,0.0,7.769813383,111.2814222,10.65,'11111222,11111222,11111222' 
TABS,ioos:station:wmo:42044:1,2003-08-03T02:39:00Z,26.1914,-97.0507,0.0,7.827803012,115.4196498,11.33,'11111222,11111222,11111222' 
TABS,ioos:station:wmo:42044:1,2003-08-03T03:09:00Z,26.1914,-97.0507,0.0,7.51721358,114.6903294,10.47,'11111222,11111222,11111222' 
TABS,ioos:station:wmo:42044:1,2003-08-03T03:39:00Z,26.1914,-97.0507,0.0,7.38421289,115.7672788,10.62,'11111222,11111222,11111222' 
TABS,ioos:station:wmo:42044:1,2003-08-03T04:09:00Z,26.1914,-97.0507,0.0,7.287530446,115.0885014,10.22,'11111222,11111222,11111222' 
TABS,ioos:station:wmo:42044:1,2003-08-03T04:39:00Z,26.1914,-97.0507,0.0,7.304690274,120.2511413,11.02,'11111222,11111222,11111222' 
TABS,ioos:station:wmo:42044:1,2003-08-03T05:09:00Z,26.1914,-97.0507,0.0,7.253688717,119.3925279,10.23,'11111222,11111222,11111222' 
TABS,ioos:station:wmo:42044:1,2003-08-03T05:39:00Z,26.1914,-97.0507,0.0,7.196533888,119.5576054,10.67,'11111222,11111222,11111222' 
TABS,ioos:station:wmo:42044:1,2003-08-03T06:09:00Z,26.1914,-97.0507,0.0,7.310984886,120.9506648,9.55,'11111222,11111222,11111222' 
TABS,ioos:station:wmo:42044:1,2003-08-03T06:39:00Z,26.1914,-97.0507,0.0,7.373601562,122.4834565,11.05,'11111222,11111222,11111222' 
TABS,ioos:station:wmo:42044:1,2003-08-03T07:09:00Z,26.1914,-97.0507,0.0,7.268459259,119.5985718,9.87,'11111222,11111222,11111222' 
TABS,ioos:station:wmo:42044:1,2003-08-03T07:39:00Z,26.1914,-97.0507,0.0,6.989227425,123.6222006,10.13,'11111222,11111222,11111222' 
TABS,ioos:station:wmo:42044:1,2003-08-03T08:09:00Z,26.1914,-97.0507,0.0,6.227880859,120.064743,8.78,'11111222,11111222,11111222' 
TABS,ioos:station:wmo:42044:1,2003-08-03T08:39:00Z,26.1914,-97.0507,0.0,5.901398139,111.7837506,8.39,'11111222,11111222,11111222' 
TABS,ioos:station:wmo:42044:1,2003-08-03T09:09:00Z,26.1914,-97.0507,0.0,5.881232864,113.3396696,8.07,'11111222,11111222,11111222' 
TABS,ioos:station:wmo:42044:1,2003-08-03T09:39:00Z,26.1914,-97.0507,0.0,5.855399218,112.4922739,8.39,'11111222,11111222,11111222' 
TABS,ioos:station:wmo:42044:1,2003-08-03T10:09:00Z,26.1914,-97.0507,0.0,5.866046369,108.2808913,8.13,'11111222,11111222,11111222' 
TABS,ioos:station:wmo:42044:1,2003-08-03T10:39:00Z,26.1914,-97.0507,0.0,6.012395529,109.4298382,8.02,'11111222,11111222,11111222' 
TABS,ioos:station:wmo:42044:1,2003-08-03T11:09:00Z,26.1914,-97.0507,0.0,6.48951462,109.161256,8.84,'11111222,11111222,11111222' 
TABS,ioos:station:wmo:42044:1,2003-08-03T11:39:00Z,26.1914,-97.0507,0.0,6.411247928,109.594084,8.71,'11111222,11111222,11111222' 
TABS,ioos:station:wmo:42044:1,2003-08-03T12:09:00Z,26.1914,-97.0507,0.0,6.312527228,109.2390204,8.8,'11111222,11111222,11111222' 
TABS,ioos:station:wmo:42044:1,2003-08-03T12:39:00Z,26.1914,-97.0507,0.0,6.23604041,108.6096536,8.81,'11111222,11111222,11111222' 
TABS,ioos:station:wmo:42044:1,2003-08-03T13:09:00Z,26.1914,-97.0507,0.0,6.782602745,110.8134805,8.96,'11111222,11111222,11111222' 
TABS,ioos:station:wmo:42044:1,2003-08-03T13:39:00Z,26.1914,-97.0507,0.0,6.821561405,112.7688343,9.72,'11111222,11111222,11111222' 
TABS,ioos:station:wmo:42044:1,2003-08-03T14:09:00Z,26.1914,-97.0507,0.0,7.336163848,113.4553348,9.83,'11111222,11111222,11111222' 
TABS,ioos:station:wmo:42044:1,2003-08-03T14:39:00Z,26.1914,-97.0507,0.0,6.783818983,103.7293643,9.0,'11111222,11111222,11111222' 
TABS,ioos:station:wmo:42044:1,2003-08-03T15:09:00Z,26.1914,-97.0507,0.0,6.352676601,104.8678961,8.79,'11111222,11111222,11111222' 
TABS,ioos:station:wmo:42044:1,2003-08-03T15:39:00Z,26.1914,-97.0507,0.0,6.0534453,102.4984007,7.97,'11111222,11111222,11111222' 
TABS,ioos:station:wmo:42044:1,2003-08-03T16:09:00Z,26.1914,-97.0507,0.0,5.872410067,102.1905515,8.07,'11111222,11111222,11111222' 
TABS,ioos:station:wmo:42044:1,2003-08-03T16:39:00Z,26.1914,-97.0507,0.0,5.616164171,100.049746,8.32,'11111222,11111222,11111222' 
TABS,ioos:station:wmo:42044:1,2003-08-03T17:09:00Z,26.1914,-97.0507,0.0,5.745720146,103.7947772,7.78,'11111222,11111222,11111222' 
TABS,ioos:station:wmo:42044:1,2003-08-03T17:39:00Z,26.1914,-97.0507,0.0,5.88765658,95.55606947,8.13,'11111222,11111222,11111222' 
TABS,ioos:station:wmo:42044:1,2003-08-03T18:09:00Z,26.1914,-97.0507,0.0,6.269744811,95.58369746,8.6,'11111222,11111222,11111222' 
TABS,ioos:station:wmo:42044:1,2003-08-03T18:39:00Z,26.1914,-97.0507,0.0,6.561287983,95.5980431,8.55,'11111222,11111222,11111222' 
TABS,ioos:station:wmo:42044:1,2003-08-03T19:09:00Z,26.1914,-97.0507,0.0,6.271594694,94.75646465,8.23,'11111222,11111222,11111222' 
TABS,ioos:station:wmo:42044:1,2003-08-03T19:39:00Z,26.1914,-97.0507,0.0,5.982081578,93.64246662,8.56,'11111222,11111222,11111222' 
TABS,ioos:station:wmo:42044:1,2003-08-03T20:09:00Z,26.1914,-97.0507,0.0,6.27341215,93.74765916,8.32,'11111222,11111222,11111222' 
TABS,ioos:station:wmo:42044:1,2003-08-03T20:39:00Z,26.1914,-97.0507,0.0,6.684676507,95.83893063,9.72,'11111222,11111222,11111222' 
TABS,ioos:station:wmo:42044:1,2003-08-03T21:09:00Z,26.1914,-97.0507,0.0,6.397038377,92.6883836,8.88,'11111222,11111222,11111222' 
TABS,ioos:station:wmo:42044:1,2003-08-03T21:39:00Z,26.1914,-97.0507,0.0,6.506919394,96.88514291,9.32,'11111222,11111222,11111222' 
TABS,ioos:station:wmo:42044:1,2003-08-03T22:09:00Z,26.1914,-97.0507,0.0,6.100631115,93.3834188,8.38,'11111222,11111222,11111222' 
TABS,ioos:station:wmo:42044:1,2003-08-03T22:39:00Z,26.1914,-97.0507,0.0,6.2325356,99.88589401,8.78,'11111222,11111222,11111222' 
TABS,ioos:station:wmo:42044:1,2003-08-03T23:09:00Z,26.1914,-97.0507,0.0,6.429626739,103.9501803,9.33,'11111222,11111222,11111222' 
TABS,ioos:station:wmo:42044:1,2003-08-03T23:39:00Z,26.1914,-97.0507,0.0,6.442243398,104.7484761,9.29,'11111222,11111222,11111222' 
TABS,ioos:station:wmo:42044:1,2003-08-04T00:09:00Z,26.1914,-97.0507,0.0,6.472225274,102.8556667,8.86,'11111222,11111222,11111222' 
TABS,ioos:station:wmo:42044:1,2003-08-04T00:39:00Z,26.1914,-97.0507,0.0,6.684010772,106.157723,9.31,'11111222,11111222,11111222' 
TABS,ioos:station:wmo:42044:1,2003-08-04T01:09:00Z,26.1914,-97.0507,0.0,6.701261075,104.0781051,9.08,'11111222,11111222,11111222' 
TABS,ioos:station:wmo:42044:1,2003-08-04T01:39:00Z,26.1914,-97.0507,0.0,6.559153909,103.0408386,9.47,'11111222,11111222,11111222' 
TABS,ioos:station:wmo:42044:1,2003-08-04T02:09:00Z,26.1914,-97.0507,0.0,6.130595403,101.3836419,9.18,'11111222,11111222,11111222' 
TABS,ioos:station:wmo:42044:1,2003-08-04T02:39:00Z,26.1914,-97.0507,0.0,6.503552875,100.7228771,8.75,'11111222,11111222,11111222' 
TABS,ioos:station:wmo:42044:1,2003-08-04T03:09:00Z,26.1914,-97.0507,0.0,5.805385431,92.46853306,7.78,'11111222,11111222,11111222' 
TABS,ioos:station:wmo:42044:1,2003-08-04T03:39:00Z,26.1914,-97.0507,0.0,6.268269299,100.6649715,8.54,'11111222,11111222,11111222' 
TABS,ioos:station:wmo:42044:1,2003-08-04T04:09:00Z,26.1914,-97.0507,0.0,6.634892614,109.0907296,9.15,'11111222,11111222,11111222' 
TABS,ioos:station:wmo:42044:1,2003-08-04T04:39:00Z,26.1914,-97.0507,0.0,6.24323634,112.2107836,9.48,'11111222,11111222,11111222' 
TABS,ioos:station:wmo:42044:1,2003-08-04T05:09:00Z,26.1914,-97.0507,0.0,6.233305704,113.6455331,9.17,'11111222,11111222,11111222' 
TABS,ioos:station:wmo:42044:1,2003-08-04T05:39:00Z,26.1914,-97.0507,0.0,6.102073418,111.4356223,9.1,'11111222,11111222,11111222' 
TABS,ioos:station:wmo:42044:1,2003-08-04T06:09:00Z,26.1914,-97.0507,0.0,6.191098449,113.211109,8.37,'11111222,11111222,11111222' 
TABS,ioos:station:wmo:42044:1,2003-08-04T06:39:00Z,26.1914,-97.0507,0.0,5.702850165,111.3913325,8.19,'11111222,11111222,11111222' 
TABS,ioos:station:wmo:42044:1,2003-08-04T07:09:00Z,26.1914,-97.0507,0.0,5.630568355,118.8869351,7.68,'11111222,11111222,11111222' 
TABS,ioos:station:wmo:42044:1,2003-08-04T07:39:00Z,26.1914,-97.0507,0.0,5.366386121,118.8579231,7.57,'11111222,11111222,11111222' 
TABS,ioos:station:wmo:42044:1,2003-08-04T08:09:00Z,26.1914,-97.0507,0.0,5.419151225,110.9771561,8.04,'11111222,11111222,11111222' 
TABS,ioos:station:wmo:42044:1,2003-08-04T08:39:00Z,26.1914,-97.0507,0.0,5.391150156,111.0912946,7.63,'11111222,11111222,11111222' 
TABS,ioos:station:wmo:42044:1,2003-08-04T09:09:00Z,26.1914,-97.0507,0.0,5.002969118,101.0632677,6.86,'11111222,11111222,11111222' 
TABS,ioos:station:wmo:42044:1,2003-08-04T09:39:00Z,26.1914,-97.0507,0.0,5.582705437,102.5180675,7.4,'11111222,11111222,11111222' 
TABS,ioos:station:wmo:42044:1,2003-08-04T10:09:00Z,26.1914,-97.0507,0.0,4.688976434,93.54625836,6.22,'11111222,11111222,11111222' 
TABS,ioos:station:wmo:42044:1,2003-08-04T10:39:00Z,26.1914,-97.0507,0.0,5.217518567,93.07669003,7.01,'11111222,11111222,11111222' 
TABS,ioos:station:wmo:42044:1,2003-08-04T11:09:00Z,26.1914,-97.0507,0.0,5.196710498,99.19083608,7.95,'11111222,11111222,11111222' 
TABS,ioos:station:wmo:42044:1,2003-08-04T11:39:00Z,26.1914,-97.0507,0.0,5.0988332,93.37347231,7.22,'11111222,11111222,11111222' 
TABS,ioos:station:wmo:42044:1,2003-08-04T12:09:00Z,26.1914,-97.0507,0.0,5.110792502,91.00943755,6.88,'11111222,11111222,11111222' 
TABS,ioos:station:wmo:42044:1,2003-08-04T12:39:00Z,26.1914,-97.0507,0.0,5.304988219,92.48527665,8.01,'11111222,11111222,11111222' 
TABS,ioos:station:wmo:42044:1,2003-08-04T13:09:00Z,26.1914,-97.0507,0.0,5.334988285,96.56593662,7.37,'11111222,11111222,11111222' 
TABS,ioos:station:wmo:42044:1,2003-08-04T13:39:00Z,26.1914,-97.0507,0.0,5.723469228,98.54106647,8.08,'11111222,11111222,11111222' 
TABS,ioos:station:wmo:42044:1,2003-08-04T14:09:00Z,26.1914,-97.0507,0.0,5.160561985,93.6667799,7.09,'11111222,11111222,11111222' 
TABS,ioos:station:wmo:42044:1,2003-08-04T14:39:00Z,26.1914,-97.0507,0.0,5.18003861,89.77836147,7.08,'11111222,11111222,11111222' 
TABS,ioos:station:wmo:42044:1,2003-08-04T15:09:00Z,26.1914,-97.0507,0.0,5.254807323,84.43004113,6.91,'11111222,11111222,11111222' 
TABS,ioos:station:wmo:42044:1,2003-08-04T15:39:00Z,26.1914,-97.0507,0.0,5.725032751,92.40302477,7.72,'11111222,11111222,11111222' 
TABS,ioos:station:wmo:42044:1,2003-08-04T16:09:00Z,26.1914,-97.0507,0.0,5.687046685,94.43775094,8.03,'11111222,11111222,11111222' 
TABS,ioos:station:wmo:42044:1,2003-08-04T16:39:00Z,26.1914,-97.0507,0.0,5.346522234,85.49403528,7.71,'11111222,11111222,11111222' 
TABS,ioos:station:wmo:42044:1,2003-08-04T17:09:00Z,26.1914,-97.0507,0.0,5.609153234,79.21052821,7.36,'11111222,11111222,11111222' 
TABS,ioos:station:wmo:42044:1,2003-08-04T17:39:00Z,26.1914,-97.0507,0.0,5.830214404,89.5082048,9.12,'11111222,11111222,11111222' 
TABS,ioos:station:wmo:42044:1,2003-08-04T18:09:00Z,26.1914,-97.0507,0.0,5.150038835,89.77707284,8.45,'11111222,11111222,11111222' 
TABS,ioos:station:wmo:42044:1,2003-08-04T18:39:00Z,26.1914,-97.0507,0.0,4.651816849,84.44832368,7.31,'11111222,11111222,11111222' 